CZ-4 DEB, 26142

Orbit data source: Space-Track

CZ-4 DEB, 26142 is space debris in SSO originally from a launch on Thu, 14 Oct 1999 UTC launched from the Taiyaun Space Center, China (TSC). Debris objects in space refer to the collection of defunct objects orbiting the Earth. Examples of debris include non-operational satellites, rocket bodies, and fragments generated from explosions, collisions, or faulty payload assembly.

Loading next visibility...
Identifier
26142, 1999-057AE
Orbit
SSO
Country
Flag of CNCN / PRC
Related business
Manufacturer
Unknown
Mission
Spacecraft
Bus & Motor
Unknown
Mass
Unknown
Launch date (UTC)
1999-10-14 (26 years ago)
Launch vehicle
Unknown
Launch site
Taiyaun Space Center, China (TSC)
Object type
Payload
Rocket body
Debris
Shape & HBR
Unknown shape, 0.1 m
Radar Cross Section
Small (<0.1 m²)

Expand to show TLE details & history
Last TLE update: 23 hours ago

TLE from 23 hours ago
0 CZ-4 DEB
1 26142U 99057AE  25296.66703058  .00000953  00000-0  58935-3 0  9994
2 26142  98.7520 188.0146 0298872  64.7232 349.9514 13.87516320291616
Epoch: 2025-10-23T16:00Z
TLE epoch observation values (Epoch: 2025-10-23T16:00:31.442Z)
Latitude
53.24696°
Longitude
-96.27068°
Altitude
730.882 km
Speed
7.604 km/s
True Right ascension
11h 44m 43s
True Declination
53° 04' 53"
Sunlit
Object was in daylight at epoch
Visualization orbit readout
Latitude
Unknown
Longitude
Unknown
Altitude
Unknown
Speed
Unknown
Apparent Right ascension
Unknown
Apparent Declination
Unknown
Sunlit
N/A
Visualization observer readout
Local Sidereal Time
09:55:03
Azimuth
Unknown
Elevation
Unknown
Doppler factor
Unknown
Orbital elements
Apogee altitude
1,153.104 km
Perigee altitude
715.992 km
Semi-major axis
7,312.685 km
Eccentricity
0.02989
Inclination
98.752°
RAAN
188.0146°
Arg. of periapsis
64.7232°
True anomaly
349.33105°
Mean anomaly
349.9514°
Eccentric anomaly
349.64356°
Mean motion
3.47079 °/min
Orbital period
103.72 mins
BSTAR
0.00058935
Loading maneuver chart data...
Computing Atmospheric mass density...
Loading historical data...
Loading historical data...
Loading historical data...
Loading historical data...
Loading historical data...
Loading historical data...
Loading historical data...

Documentation

Showing up to 5 results
|